Weather History for Hatteras, NC

Change the Weather History Date:

Tuesday, February 19, 2013

  Actual Average Record
Temperature  
Mean Temperature 54 °F 47 °F  
Max Temperature 62 °F 54 °F 73 °F (1991)
Min Temperature 45 °F 40 °F 18 °F (1958)
Degree Days  
Heating Degree Days 11 18  
Month to date heating degree days 320 355  
Since 1 July heating degree days 1581 1768  
Cooling Degree Days 0 0  
Month to date cooling degree days 0 0  
Year to date cooling degree days 0 0  
Growing Degree Days 3 (Base 50)    
Moisture  
Dew Point 48 °F    
Average Humidity 73    
Maximum Humidity 96    
Minimum Humidity 50    
Precipitation  
Precipitation 0.06 in 0.14 in 1.15 in (1974)
Month to date precipitation 4.33 2.74  
Year to date precipitation 6.50 7.98  
Snow  
Snow 0.00 in - - ()
Month to date snowfall 0.0  
Since 1 July snowfall 0.0  
Snow Depth 0.00 in    
Sea Level Pressure  
Sea Level Pressure 30.07 in    
Wind  
Wind Speed 12 mph (SW)    
Max Wind Speed 31 mph    
Max Gust Speed 45 mph    
Visibility 8 miles    
Events Rain    
T = Trace of Precipitation, MM = Missing Value Source: NWS Daily Summary

Daily Weather History Graph

Daily Weather History Graph

Search for Another Location

Airport:

Trip Planner

Search our weather history database for the weather conditions in past years. The results will help you decide how hot, cold, wet, or windy it might be!

Date:

Astronomy

Feb. 19, 2013 Rise Set
Actual Time 6:44 AM EST 5:49 PM EST
Civil Twilight 6:18 AM EST 6:14 PM EST
Nautical Twilight 5:48 AM EST 6:44 PM EST
Astronomical Twilight 5:19 AM EST 7:13 PM EST
Moon 12:25 PM EST (2/19) 2:07 AM EST (2/19)
Length of Visible Light 11h 56m
Length of Day
11h 05m
Waxing Gibbous, 67% of the Moon is Illuminated
Feb 19
Waxing Gibbous
Feb 25
Full
Mar 4
Last Quarter
Mar 11
New
Mar 19
First Quarter

Hourly Weather History & Observations

Time (EST) Temp. Windchill Dew Point Humidity Pressure Visibility Wind Dir Wind Speed Gust Speed Precip Events Conditions
12:51 AM 48.0 °F - 30.9 °F 52% 30.33 in 10.0 mi WSW 10.4 mph - N/A   Clear
1:51 AM 50.0 °F - 37.9 °F 63% 30.31 in 10.0 mi WSW 6.9 mph - N/A   Clear
2:51 AM 48.9 °F - 39.9 °F 71% 30.29 in 10.0 mi WSW 6.9 mph - N/A   Clear
3:51 AM 48.9 °F - 41.0 °F 74% 30.26 in 10.0 mi WSW 5.8 mph - N/A   Clear
4:51 AM 48.0 °F - 42.1 °F 80% 30.25 in 10.0 mi SW 4.6 mph - N/A   Mostly Cloudy
5:51 AM 50.0 °F - 44.1 °F 80% 30.22 in 10.0 mi SSE 6.9 mph - N/A   Partly Cloudy
6:51 AM 45.0 °F 43.5 °F 42.1 °F 90% 30.22 in 10.0 mi SSE 3.5 mph - N/A   Clear
7:51 AM 53.1 °F - 46.9 °F 80% 30.19 in 10.0 mi ESE 8.1 mph - N/A   Clear
8:51 AM 57.0 °F - 48.0 °F 72% 30.19 in 10.0 mi ESE 6.9 mph - N/A   Partly Cloudy
9:51 AM 57.0 °F - 48.9 °F 74% 30.16 in 10.0 mi ESE 5.8 mph - N/A   Partly Cloudy
10:51 AM 60.1 °F - 50.0 °F 69% 30.14 in 10.0 mi South 5.8 mph - N/A   Partly Cloudy
11:51 AM 61.0 °F - 52.0 °F 72% 30.10 in 10.0 mi SW 12.7 mph - N/A   Mostly Cloudy
12:51 PM 57.9 °F - 55.0 °F 90% 30.06 in 7.0 mi SSW 15.0 mph 26.5 mph 0.02 in   Overcast
1:51 PM 60.1 °F - 55.0 °F 83% 30.01 in 7.0 mi SSW 13.8 mph 20.7 mph N/A   Mostly Cloudy
2:51 PM 61.0 °F - 55.0 °F 81% 29.97 in 7.0 mi SSW 19.6 mph 27.6 mph 0.01 in   Overcast
3:33 PM 57.2 °F - 55.4 °F 94% 29.97 in 2.5 mi WSW 19.6 mph 43.7 mph 0.02 in Rain Light Rain
3:40 PM 57.2 °F - 53.6 °F 88% 29.97 in 4.0 mi WSW 19.6 mph 29.9 mph 0.02 in Rain Light Rain
3:51 PM 55.9 °F - 54.0 °F 93% 29.97 in 6.0 mi WSW 17.3 mph 31.1 mph 0.02 in Rain Light Rain
4:51 PM 57.9 °F - 51.1 °F 78% 29.94 in 8.0 mi SW 18.4 mph 29.9 mph 0.00 in Rain Light Rain
5:51 PM 57.9 °F - 53.1 °F 84% 29.91 in 7.0 mi SW 20.7 mph 29.9 mph 0.01 in   Overcast
7:51 PM 57.9 °F - 51.1 °F 78% 29.91 in 9.0 mi WSW 19.6 mph 34.5 mph N/A   Overcast
8:51 PM 57.0 °F - 51.1 °F 81% 29.90 in 9.0 mi West 19.6 mph 32.2 mph N/A   Overcast
9:06 PM 57.2 °F - 51.8 °F 82% 29.90 in 8.0 mi WSW 18.4 mph 26.5 mph N/A   Overcast
9:51 PM 55.9 °F - 52.0 °F 87% 29.90 in 7.0 mi West 15.0 mph 27.6 mph N/A   Mostly Cloudy
10:51 PM 52.0 °F - 50.0 °F 93% 29.90 in 10.0 mi West 11.5 mph 19.6 mph N/A   Partly Cloudy
11:51 PM 50.0 °F - 46.0 °F 86% 29.92 in 10.0 mi WNW 9.2 mph - N/A   Mostly Cloudy